Date String (YYYY-MM-DD hh:mm:ss) UTC,Instrument flags,absolute air pressure of the measurement (hPa),sample flow rate (lpm),inlet stack bypass flow (lpm),air temperature of the measurement (°C),ambient temperature measured by the external sensor (°C),aerosol sample conditioner tube jacket temperature (°C),OPC LED temperature (°C),internal box temperature (°C),relative humidity of the measurement (%),span deviation,mass concentration of particles derived from Lorenz-Mie calculation of OPC scattering (μg/m³),mass concentration of particles derived from Lorenz-Mie calculation of OPC scattering (μg/m³),mass concentration of particles derived from Lorenz-Mie calculation of OPC scattering (μg/m³)
DateTimeUTC,F1_M11,P_M11,Q1_M11,Q2_M11,T1_M11,T2_M11,T3_M11,T4_M11,T5_M11,U1_M11,ZSPAN_M11,X0_M11,X2_M11,X1_M11
2023-07-02 09:00:00,SystemResetWarning,0832.4,4.99,000.00,029.5,028.2,000.0,038.1,031.1,22.0,0000.0,0007.47,0004.35,0004.05
2023-07-02 09:01:00,SystemResetWarning,0832.4,5.00,000.00,029.6,028.2,000.0,038.1,031.1,22.2,0000.3,0007.37,0004.32,0004.03
2023-07-02 09:02:00,SystemResetWarning,0832.3,5.00,000.00,029.6,028.2,000.0,038.1,031.1,22.2,0000.2,0007.36,0004.31,0004.02
2023-07-02 09:03:00,SystemResetWarning,0832.3,5.00,000.00,029.6,028.2,000.0,038.1,031.1,21.8,0000.1,0007.43,0004.31,0004.00
2023-07-02 09:04:00,SystemResetWarning,0832.3,5.00,000.00,029.6,028.2,000.0,038.1,031.1,21.1,-000.4,0006.68,0004.29,0003.98
2023-07-02 09:05:00,SystemResetWarning,0832.3,5.00,000.00,029.6,028.2,000.0,038.1,031.1,20.9,-000.8,0006.62,0004.26,0003.95
2023-07-02 09:06:00,SystemResetWarning,0832.3,4.99,000.00,029.6,028.3,000.0,038.1,031.2,20.8,-001.5,0006.58,0004.23,0003.92
2023-07-02 09:07:00,SystemResetWarning,0832.2,5.00,000.00,029.6,028.3,000.0,038.2,031.2,20.7,-001.6,0006.50,0004.18,0003.89
2023-07-02 09:08:00,SystemResetWarning,0832.2,5.00,000.00,029.6,028.3,000.0,038.2,031.2,20.6,-001.0,0006.38,0004.15,0003.86
2023-07-02 09:09:00,SystemResetWarning,0832.2,5.00,000.00,029.6,028.3,000.0,038.2,031.2,21.0,-000.2,0006.17,0004.11,0003.84
2023-07-02 09:10:00,SystemResetWarning,0832.2,5.00,000.00,029.7,028.3,000.0,038.2,031.2,21.4,0000.0,0006.14,0004.09,0003.81
2023-07-02 09:11:00,SystemResetWarning,0832.2,5.00,000.00,029.7,028.3,000.0,038.2,031.2,21.4,0000.1,0006.12,0004.08,0003.79
2023-07-02 09:12:00,SystemResetWarning,0832.2,5.00,000.00,029.7,028.3,000.0,038.2,031.2,21.5,0000.1,0006.17,0004.08,0003.79
2023-07-02 09:13:00,SystemResetWarning,0832.2,5.01,000.00,029.7,028.3,000.0,038.2,031.2,21.5,0000.0,0006.22,0004.09,0003.79
2023-07-02 09:14:00,SystemResetWarning,0832.2,5.01,000.00,029.7,028.3,000.0,038.2,031.2,21.4,0000.0,0006.19,0004.09,0003.79
2023-07-02 09:15:00,SystemResetWarning,0832.2,5.00,000.00,029.7,028.4,000.0,038.2,031.2,21.5,0000.0,0006.13,0004.09,0003.79
2023-07-02 09:16:00,SystemResetWarning,0832.2,4.99,000.00,029.7,028.4,000.0,038.3,031.2,21.5,0000.0,0006.09,0004.10,0003.82
2023-07-02 09:17:00,SystemResetWarning,0832.2,4.99,000.00,029.7,028.4,000.0,038.3,031.3,21.4,0000.0,0006.06,0004.11,0003.85
2023-07-02 09:18:00,SystemResetWarning,0832.2,4.99,000.00,029.7,028.4,000.0,038.3,031.3,21.4,0000.0,0006.08,0004.14,0003.87
2023-07-02 09:19:00,SystemResetWarning,0832.2,5.00,000.00,029.8,028.4,000.0,038.3,031.3,21.6,0000.0,0006.36,0004.15,0003.90
2023-07-02 09:20:00,SystemResetWarning,0832.2,5.00,000.00,029.8,028.4,000.0,038.3,031.3,21.6,0000.0,0006.54,0004.18,0003.91
2023-07-02 09:21:00,SystemResetWarning,0832.2,5.01,000.00,029.8,028.4,000.0,038.3,031.3,21.3,0000.0,0006.63,0004.20,0003.92
2023-07-02 09:22:00,SystemResetWarning,0832.2,5.01,000.00,029.8,028.4,000.0,038.3,031.3,21.4,0000.0,0007.10,0004.21,0003.93
2023-07-02 09:23:00,SystemResetWarning,0832.2,5.00,000.00,029.8,028.4,000.0,038.3,031.3,21.5,0000.0,0007.25,0004.19,0003.93
2023-07-02 09:24:00,SystemResetWarning,0832.2,5.00,000.00,029.8,028.4,000.0,038.3,031.3,21.5,0000.0,0007.27,0004.19,0003.93
2023-07-02 09:25:00,SystemResetWarning,0832.2,5.00,000.00,029.8,028.5,000.0,038.3,031.3,21.7,0000.9,0007.35,0004.19,0003.93
2023-07-02 09:26:00,SystemResetWarning,0832.2,5.00,000.00,029.8,028.5,000.0,038.3,031.3,21.9,0001.8,0007.39,0004.20,0003.92
2023-07-02 09:27:00,SystemResetWarning,0832.2,5.01,000.00,029.8,028.5,000.0,038.4,031.4,21.8,0001.9,0007.42,0004.22,0003.92
2023-07-02 09:28:00,SystemResetWarning,0832.2,5.00,000.00,029.8,028.5,000.0,038.4,031.4,21.6,0001.7,0007.47,0004.24,0003.92
2023-07-02 09:29:00,SystemResetWarning,0832.2,4.99,000.00,029.9,028.5,000.0,038.4,031.4,21.3,0001.9,0007.45,0004.22,0003.91
2023-07-02 09:30:00,SystemResetWarning,0832.2,4.99,000.00,029.9,028.5,000.0,038.4,031.4,21.2,0002.2,0008.10,0004.23,0003.91
2023-07-02 09:31:00,SystemResetWarning,0832.2,5.00,000.00,029.9,028.5,000.0,038.4,031.4,21.5,0001.1,0008.24,0004.21,0003.91
2023-07-02 09:32:00,SystemResetWarning,0832.2,4.99,000.00,029.9,028.5,000.0,038.4,031.4,21.9,0000.0,0008.40,0004.20,0003.91
2023-07-02 09:33:00,SystemResetWarning,0832.2,5.00,000.00,029.9,028.5,000.0,038.4,031.4,21.9,-000.0,0008.26,0004.18,0003.91
2023-07-02 09:34:00,SystemResetWarning,0832.2,5.00,000.00,029.9,028.5,000.0,038.4,031.4,21.8,-000.2,0008.17,0004.18,0003.91
2023-07-02 09:35:00,SystemResetWarning,0832.2,5.01,000.00,029.9,028.5,000.0,038.4,031.4,21.9,0000.1,0008.23,0004.18,0003.91
2023-07-02 09:36:00,SystemResetWarning,0832.2,5.01,000.00,029.9,028.5,000.0,038.4,031.4,22.0,0000.1,0008.15,0004.17,0003.91
2023-07-02 09:37:00,SystemResetWarning,0832.2,5.00,000.00,029.9,028.5,000.0,038.4,031.4,21.9,0000.0,0008.11,0004.18,0003.91
2023-07-02 09:38:00,SystemResetWarning,0832.2,4.99,000.00,029.9,028.5,000.0,038.5,031.4,21.8,0000.0,0008.05,0004.15,0003.92
2023-07-02 09:39:00,SystemResetWarning,0832.2,5.00,000.00,029.9,028.5,000.0,038.5,031.4,21.7,0000.0,0008.06,0004.14,0003.91
2023-07-02 09:40:00,SystemResetWarning,0832.2,5.02,000.00,029.9,028.5,000.0,038.5,031.4,21.8,0000.0,0008.32,0004.15,0003.91
2023-07-02 09:41:00,SystemResetWarning,0832.2,5.00,000.00,029.9,028.5,000.0,038.5,031.4,21.6,0000.0,0007.71,0004.15,0003.91
2023-07-02 09:42:00,SystemResetWarning,0832.2,4.98,000.00,029.9,028.5,000.0,038.5,031.4,21.6,0000.0,0007.61,0004.17,0003.91
2023-07-02 09:43:00,SystemResetWarning,0832.2,5.00,000.00,029.9,028.5,000.0,038.5,031.4,21.4,0000.0,0007.92,0004.18,0003.92
2023-07-02 09:44:00,SystemResetWarning,0832.2,5.02,000.00,029.9,028.5,000.0,038.5,031.4,21.4,0000.0,0007.88,0004.19,0003.93
2023-07-02 09:45:00,SystemResetWarning,0832.2,5.00,000.00,029.9,028.5,000.0,038.5,031.4,21.2,0000.0,0007.89,0004.23,0003.93
2023-07-02 09:46:00,SystemResetWarning,0832.2,4.99,000.00,029.9,028.5,000.0,038.5,031.4,21.1,0000.0,0007.78,0004.23,0003.93
2023-07-02 09:47:00,SystemResetWarning,0832.2,5.01,000.00,029.9,028.5,000.0,038.5,031.4,21.1,0000.0,0007.80,0004.22,0003.93
2023-07-02 09:48:00,SystemResetWarning,0832.1,5.00,000.00,029.9,028.5,000.0,038.5,031.4,21.1,-000.9,0007.78,0004.21,0003.93
2023-07-02 09:49:00,SystemResetWarning,0832.2,5.00,000.00,029.9,028.6,000.0,038.5,031.4,21.3,-000.9,0007.77,0004.20,0003.93
2023-07-02 09:50:00,SystemResetWarning,0832.2,5.00,000.00,029.9,028.6,000.0,038.5,031.4,21.3,-000.7,0007.73,0004.17,0003.92
2023-07-02 09:51:00,SystemResetWarning,0832.2,5.00,000.00,030.0,028.6,000.0,038.5,031.5,21.0,-000.8,0007.55,0004.17,0003.93
2023-07-02 09:52:00,SystemResetWarning,0832.2,5.00,000.00,030.0,028.6,000.0,038.5,031.5,20.9,-000.9,0007.36,0004.18,0003.95
2023-07-02 09:53:00,SystemResetWarning,0832.1,5.00,000.00,030.0,028.6,000.0,038.5,031.5,20.7,-000.6,0007.64,0004.15,0003.95
2023-07-02 09:54:00,SystemResetWarning,0832.1,4.99,000.00,030.0,028.6,000.0,038.5,031.5,20.2,-000.1,0007.19,0004.13,0003.94
2023-07-02 09:55:00,SystemResetWarning,0832.1,5.00,000.00,030.0,028.6,000.0,038.5,031.5,20.3,0000.6,0007.27,0004.12,0003.92
2023-07-02 09:56:00,SystemResetWarning,0832.1,5.00,000.00,030.0,028.6,000.0,038.6,031.5,20.6,0000.1,0007.41,0004.08,0003.91
2023-07-02 09:57:00,SystemResetWarning,0832.1,5.00,000.00,030.0,027.9,000.0,038.5,031.4,20.7,0000.0,0007.39,0004.07,0003.92
2023-07-02 09:58:00,SystemResetWarning,0832.2,5.01,000.00,029.9,025.8,000.0,038.4,031.2,20.6,0000.0,0007.40,0004.06,0003.91
2023-07-02 09:59:00,SystemResetWarning,0832.2,5.00,000.00,029.8,025.1,000.0,038.3,031.0,21.0,0000.0,0007.47,0004.06,0003.90
